Tracking 31027 objects as of 19-Jul-2025
HD Live streaming from Space Station
objects crossing your sky now

THOR ABLESTAR DEB

Track THOR ABLESTAR DEB now!
10-day predictions


NORAD ID: 652
Int'l Code: 1961-015HD
Perigee: 783.6 km
Apogee: 900.5 km
Inclination: 66.7 °
Period: 101.6 minutes
Semi major axis: 7213 km
RCS: 0.0233 m2 (small)
Launch date: June 29, 1961
Source: United States (US)
Launch site: AIR FORCE EASTERN TEST RANGE (AFETR)

Note: This is SATELLITE DEBRIS
Your satellite tracking list
SL-8 R/B
Track 1 satellite(s)




NASA's NSSDC Master Catalog

Two Line Element Set (TLE):
1 00652U 61015HD  25199.44668374  .00001216  00000-0  62282-3 0  9997
2 00652  66.7038 242.3738 0081050 239.1532 120.1568 14.17179706246540
Source of the keplerian elements: AFSPC